DELTA 1 DEB, 17765

Orbit data source: Space-Track

DELTA 1 DEB, 17765 is space debris in SSO originally from a launch on Sun, 05 Mar 1978 UTC launched from the Air Force Western Test Range (AFWTR). Debris objects in space refer to the collection of defunct objects orbiting the Earth. Examples of debris include non-operational satellites, rocket bodies, and fragments generated from explosions, collisions, or faulty payload assembly.

Loading next visibility...
Identifier
17765, 1978-026GX
Orbit
SSO
Country
Flag of USUS
Related business
Manufacturer
Unknown
Mission
Spacecraft
Bus & Motor
Unknown
Mass
Unknown
Launch date (UTC)
1978-03-05 (48 years ago)
Launch vehicle
Unknown
Launch site
Air Force Western Test Range (AFWTR)
Object type
Payload
Rocket body
Debris
Shape & HBR
Unknown shape, 0.1 m
Radar Cross Section
Medium (>0.1 m² and <1 m²)

Expand to show TLE details & history
Last TLE update: 3 days ago

TLE from 3 days ago
0 DELTA 1 DEB
1 17765U 78026GX  26171.20683436  .00000294  00000-0  23288-3 0  9999
2 17765  99.0325 266.1207 0040539 289.7939  99.5917 13.98896475100380
Epoch: 2026-06-20T04:57Z
TLE epoch observation values (Epoch: 2026-06-20T04:57:50.488Z)
Latitude
29.48563°
Longitude
-81.89439°
Altitude
906.286 km
Speed
7.399 km/s
True Right ascension
17h 23m 57s
True Declination
29° 20' 29"
Sunlit
Object was in full shadow at epoch
Visualization orbit readout
Latitude
Unknown
Longitude
Unknown
Altitude
Unknown
Speed
Unknown
Apparent Right ascension
Unknown
Apparent Declination
Unknown
Sunlit
N/A
Visualization observer readout
Local Sidereal Time
07:03:59
Azimuth
Unknown
Elevation
Unknown
Doppler factor
Unknown
Orbital elements
Apogee altitude
924.305 km
Perigee altitude
865.338 km
Semi-major axis
7,272.958 km
Eccentricity
0.00405
Inclination
99.0325°
RAAN
266.1207°
Arg. of periapsis
289.7939°
True anomaly
100.04936°
Mean anomaly
99.5917°
Eccentric anomaly
99.82057°
Mean motion
3.49926 °/min
Orbital period
102.88 mins
BSTAR
0.00023288
Loading maneuver chart data...
Computing Atmospheric mass density...

Documentation

Showing up to 5 results
|